Content
SEND FEEDBACK

Daily
Averages
Monthly
Summary
United States of America

ALPINE MEADOWS, CALIFORNIA


Home > North America > United States > California
Elevation: 1900 meters     Latitude: 39 12N     Longitude: 120 14W

WEATHER
 
SELECT A DAY
Number of Records: 282,323;   Date Range: 1/1/95 - 7/29/14
 
SHARE

PRINT THIS DATA

[ ← Previous Day ]
WEATHER ALMANAC - 22 NOVEMBER, 2013
[ Next Day → ]
[ °F ]   °C
Weather ElementAverageHighLow
Temperature-5.1 °C3 °C (12:45 pm)-11 °C (6:45 am)
Dewpoint-12 °C-10 °C (12:35 am)-14 °C (11:50 am)
Humidity62 %86 % (12:55 am)28 % (12:45 pm)
Barometer1023.4 hPa1026.1 hPa (8:55 am)1021.3 hPa (11:55 pm)
Wind Speed9.7 km/h22.2 km/h (11:50 am)
Wind Gust42.6 km/h (4:55 pm)
Weather ElementAverage
Visibility16.1 km
Wind DirectionSSE (152.9 °)

Weather ElementTotal
Precipitation---
Heating Degree Days22.3 (Base 18.3)
Averaged from 49 records on 22 November, 2013
WEATHER CONDITIONS BREAKOUT
WIND DIRECTION BREAKOUT
WEATHER BY HOUR - 22 NOVEMBER, 2013
[ °F ]   °C
Local TimeTemperatureDewpointHumidityBarometerVisibilityWind DirectionWind SpeedGust SpeedPrecipitationEventsConditions
12:35 AM-7 °C-10 °C80 %1023.7 hPa16.1 kmSSE (150°)7.4 km/hClear
12:55 AM-8 °C-10 °C86 %1023.7 hPa16.1 kmSouth (180°)9.3 km/hClear
1:15 AM-8 °C-11 °C79 %1023.7 hPa16.1 kmSE (140°)5.6 km/hClear
1:35 AM-8 °C-10 °C86 %1023.7 hPa16.1 kmESE (120°)16.7 km/hClear
1:55 AM-7 °C-11 °C74 %1024 hPa16.1 kmCalmClear
2:15 AM-8 °C-12 °C73 %1024 hPa16.1 kmEast (100°)9.3 km/hClear
2:35 AM-8 °C-12 °C73 %1024 hPa16.1 kmSE (140°)9.3 km/hClear
2:55 AM-8 °C-12 °C73 %1024.4 hPa16.1 kmESE (120°)7.4 km/hClear
3:15 AM-9 °C-12 °C79 %1024 hPa16.1 kmSSE (150°)11.1 km/hClear
3:35 AM-9 °C-12 °C79 %1024 hPa16.1 kmSE (140°)7.4 km/hClear
3:55 AM-9 °C-12 °C79 %1024 hPa16.1 kmSE (140°)9.3 km/hClear
4:15 AM-10 °C-12 °C86 %1024 hPa16.1 kmSE (140°)7.4 km/hClear
4:35 AM-10 °C-12 °C86 %1024 hPa16.1 kmSE (140°)14.8 km/hClear
4:55 AM-9 °C-12 °C79 %1024.4 hPa16.1 kmSSE (150°)11.1 km/hClear
5:15 AM-9 °C-12 °C79 %1024.4 hPa16.1 kmESE (120°)7.4 km/hClear
5:35 AM-10 °C-13 °C79 %1024.4 hPa16.1 kmCalmClear
6:45 AM-11 °C-13 °C85 %1025.1 hPa16.1 kmSSW (200°)9.3 km/hPartly Cloudy
7:55 AM-8 °C-11 °C79 %1025.7 hPa16.1 kmESE (110°)7.4 km/hScattered Clouds
8:55 AM-4 °C-10 °C64 %1026.1 hPa16.1 kmCalmPartly Cloudy
9:45 AM-2 °C-12 °C47 %1026.1 hPa16.1 kmCalmClear
10:50 AM0 °C-13 °C38 %1025.1 hPa16.1 kmCalmClear
11:50 AM2 °C-14 °C30 %1024 hPa16.1 kmENE (60°)22.2 km/h35.2 km/hClear
12:45 PM3 °C-14 °C28 %1023.4 hPa16.1 kmNE (50°)16.7 km/h31.5 km/hClear
1:45 PM3 °C-13 °C30 %1022.7 hPa16.1 kmNNW (340°)11.1 km/hClear
2:55 PM2 °C-13 °C33 %1022 hPa16.1 kmNorth (360°)18.5 km/h31.5 km/hClear
3:45 PM1 °C-13 °C35 %1022.7 hPa16.1 kmNW (320°)20.4 km/h37 km/hClear
4:45 PM0 °C-13 °C38 %1022.7 hPa16.1 kmNW (320°)20.4 km/hClear
4:55 PM0 °C-13 °C38 %1022.7 hPa16.1 kmNW (310°)18.5 km/h42.6 km/hClear
5:15 PM0 °C-13 °C38 %1022 hPa16.1 kmNNW (340°)16.7 km/h25.9 km/hClear
5:35 PM-2 °C-12 °C47 %1022 hPa16.1 kmSE (130°)7.4 km/hClear
5:55 PM-2 °C-11 °C51 %1022.4 hPa16.1 kmSSE (160°)9.3 km/hClear
6:15 PM-3 °C-12 °C51 %1022.4 hPa16.1 kmNW (320°)5.6 km/hClear
6:35 PM-3 °C-12 °C51 %1022.4 hPa16.1 kmSouth (170°)5.6 km/hClear
6:55 PM-5 °C-11 °C63 %1022.4 hPa16.1 kmSouth (170°)9.3 km/hClear
7:15 PM-3 °C-13 °C47 %1022 hPa16.1 kmSW (220°)11.1 km/hClear
7:35 PM-5 °C-12 °C59 %1022 hPa16.1 kmSW (230°)7.4 km/hClear
7:55 PM-3 °C-13 °C47 %1022 hPa16.1 kmSSW (210°)9.3 km/hClear
8:15 PM-4 °C-12 °C54 %1022.4 hPa16.1 kmSouth (170°)9.3 km/hClear
8:35 PM-3 °C-12 °C51 %1022.4 hPa16.1 kmSSE (150°)11.1 km/hClear
8:55 PM-5 °C-12 °C59 %1022.4 hPa16.1 kmSSE (150°)13 km/hClear
9:15 PM-7 °C-11 °C74 %1022.4 hPa16.1 kmSouth (180°)11.1 km/hClear
9:35 PM-6 °C-12 °C63 %1022.4 hPa16.1 kmSouth (180°)7.4 km/hClear
9:55 PM-7 °C-12 °C68 %1022.4 hPa16.1 kmSSW (200°)11.1 km/hClear
10:15 PM-7 °C-12 °C68 %1022.4 hPa16.1 kmCalmClear
10:35 PM-7 °C-12 °C68 %1022 hPa16.1 kmSSE (150°)13 km/hClear
10:55 PM-7 °C-12 °C68 %1022 hPa16.1 kmCalmClear
11:15 PM-6 °C-12 °C63 %1022.4 hPa16.1 kmSE (130°)16.7 km/hClear
11:35 PM-7 °C-12 °C68 %1021.7 hPa16.1 kmEast (100°)7.4 km/hClear
11:55 PM-6 °C-12 °C63 %1021.3 hPa16.1 kmSE (130°)9.3 km/hClear
Hourly data recorded from KTRK, located 0 kilometers away from Alpine Meadows, California







STORIES FROM OUR PARTNERS